Location: ????? ??????
(37.8317°N, 23.8750°E)
Time: 13:46:49
(UTC+00:00)

CZ-2D R/B - Pass Details

Date: 20 January 2021
Orbit: 521 x 537 km, 97.4° (Epoch: 03 March)

Event Time Altitude Azimuth Distance (km) Brightness Sun altitude
Rises 16:47:09 0° 170° (S) 2,671 6.9 -14.3°
Reaches altitude 10° 16:49:15 10° 172° (S) 1,783 6.0 -14.7°
Maximum altitude 16:53:06 78° 258° (WSW) 551 3.4 -15.4°
Drops below altitude 10° 16:56:58 10° 345° (NNW) 1,789 5.9 -16.2°
Sets 16:59:05 0° 347° (NNW) 2,681 6.8 -16.6°
